Printer-friendly version

IAU Minor Planet Center

Minor Planet Center

MPEC 2006-H52 : 2006 HW50

The following Minor Planet Electronic Circular may be linked-to from your own Web pages, but must not otherwise be redistributed electronically.


Read MPEC 2006-H51 Read MPEC 2006-H53


M.P.E.C. 2006-H52                                Issued 2006 Apr. 28, 04:02 UT

     The Minor Planet Electronic Circulars contain information on unusual
         minor planets and routine data on comets.  They are published
   on behalf of Commission 20 of the International Astronomical Union by the
          Minor Planet Center, Smithsonian Astrophysical Observatory,
                          Cambridge, MA 02138, U.S.A.

                  Supported in part by the Brinson Foundation
                  Supported in part by the TABASGO Foundation
             Prepared using the Tamkin Foundation Computer Network

                              MPC@CFA.HARVARD.EDU
          URL http://cfa-www.harvard.edu/iau/mpc.html  ISSN 1523-6714

                                   2006 HW50

Observations:
     K06H50W* C2006 04 23.18950 10 20 00.69 -05 54 05.9          18.7   EH052704
     K06H50W  C2006 04 23.21065 10 20 22.05 -05 52 10.7          19.4   EH052704
     K06H50W  C2006 04 23.22128 10 20 32.88 -05 51 12.5          19.6   EH052704
     K06H50W  C2006 04 23.23187 10 20 43.57 -05 50 14.9          18.5   EH052704
     K06H50W  C2006 04 27.19064 11 33 24.51 +00 10 55.7          18.8   EH052704
     K06H50W  C2006 04 27.21434 11 33 47.44 +00 13 00.4          19.1   EH052704
     K06H50W  C2006 04 27.22591 11 33 58.69 +00 14 00.5          18.9   EH052704
     K06H50W  C2006 04 27.23717 11 34 09.68 +00 15 02.0          19.7   EH052704
     K06H50W  C2006 04 27.95341 11 46 39.45 +01 15 38.9                 EH052J95
     K06H50W  C2006 04 27.95464 11 46 40.65 +01 15 44.9                 EH052J95
     K06H50W  C2006 04 27.95586 11 46 41.83 +01 15 50.7          18.8 R EH052J95
     K06H50W  C2006 04 28.13319 11 49 50.05 +01 31 25.1          17.8 R EH052H36
     K06H50W  C2006 04 28.13643 11 49 53.00 +01 31 42.3          18.2 R EH052H36
     K06H50W  C2006 04 28.13968 11 49 56.19 +01 31 58.0          18.4 R EH052H36
     K06H50W  C2006 04 28.14294 11 49 59.15 +01 32 14.1          18.3 R EH052H36

Observer details:
704 Lincoln Laboratory ETS, New Mexico.  Observers M. Bezpalko, L. Manguso,
    D. Torres, R. Kracke, M. Blythe, H. Love, G. Spitz.  Measurers J. Stuart,
    J. Kommers.  1.0-m f/2.15 reflector + CCD.
H36 Sandlot Observatory, Scranton.  Observer G. Hug.  0.30-m
    Schmidt-Cassegrain + CCD.
J95 Great Shefford.  Observer P. Birtwhistle.  0.40-m f/6.0 Schmidt-Cassegrain
    + CCD.

Orbital elements:
2006 HW50                                                Earth MOID = 0.0204 AU
Epoch 2006 Mar. 6.0 TT = JDT 2453800.5                  MPC
M 347.34155              (2000.0)            P               Q
n   0.72409173     Peri.  322.56125     -0.99817667     -0.02125243
a   1.2282129      Node   216.34379     +0.03853854     -0.94475071
e   0.1868151      Incl.    5.47028     -0.04645561     -0.32710003
P   1.36           H   24.2           G   0.15           U   7
Residuals in seconds of arc
060423 704  0.9+  0.9-    060427 704  0.9-  0.4+    060427 J95  0.1+  0.4-
060423 704  0.0   0.1-    060427 704  0.5-  0.4-    060428 H36  0.3-  0.3-
060423 704  0.4+  0.4+    060427 704  0.3+  1.8+    060428 H36  1.6-  0.7+
060423 704  1.3-  0.4+    060427 J95  0.0   0.2+    060428 H36  0.5+  0.1+
060427 704  0.4-  0.6+    060427 J95  0.1+  0.0     060428 H36  0.9-  0.1-

Ephemeris:
2006 HW50                a,e,i = 1.23, 0.19, 5                   q = 0.9988
Date    TT    R. A. (2000) Decl.     Delta      r     Elong.  Phase     V
2006 04 25    10 53.57   -03 05.8    0.0319   1.027   130.7    48.0    18.6
2006 05 05    13 25.22   +08 31.6    0.0435   1.046   148.1    30.7    18.8
2006 05 15    14 38.46   +11 39.2    0.0672   1.068   147.4    30.7    19.8
2006 05 25    15 13.54   +11 23.4    0.0962   1.093   145.2    31.9    20.7
2006 06 04    15 33.91   +09 44.3    0.129    1.121   143.2    32.8    21.4
2006 06 14    15 48.72   +07 24.2    0.166    1.149   140.9    33.9    22.0

Gareth V. Williams           (C) Copyright 2006 MPC           M.P.E.C. 2006-H52

Read MPEC 2006-H51 Read MPEC 2006-H53


Our Web policy. Index to the CBAT/MPC/ICQ pages.


Valid HTML 4.01!